Regional Weather Roundup
Issued by NWS Portland, ME

Current Version | Previous Version | Text Only | Print | Product List | Glossary On
Versions: 1 2 3 4 5 6 7 8 9 10 11 12 13 14 15 16 17 18 19 20 21 22 23 24 25 26 27 28 29 30 31 32 33 34 35 36 37 38 39 40 41 42 43 44 45 46 47 48 49 50
000
ASUS41 KGYX 011010
RWRGYX
WEATHER ROUNDUP FOR MAINE AND NEW HAMPSHIRE
NATIONAL WEATHER SERVICE GRAY ME
600 AM EDT WED APR 01 2015

MEZ002-005-006-010-012-015-018-020-021-024-026-027-029-011100-
MAINE

CITY           SKY/WX    TMP DP  RH WIND       PRES   REMARKS
PORTLAND       CLEAR     26  11  52 N7        29.89R
SANFORD        CLEAR     16   9  73 CALM      29.89R
BAR HARBOR     CLEAR     25  16  68 NW7       29.85R
WISCASSET      CLEAR     20  12  71 CALM      29.89R
ROCKLAND       CLEAR     27   9  46 CALM      29.87R
FRYEBURG       CLEAR     14   8  77 CALM      29.88R
LEWISTONAUBURN CLEAR     23   7  50 CALM      29.87R
AUGUSTA        CLEAR     23   7  50 N7        29.87R
WATERVILLE     CLEAR     21   7  53 NW3       29.84R
BANGOR         PTCLDY    20  10  65 NW3       29.86R
GREENVILLE       N/A     13   6  74 NW7       29.77R
MILLINOCKET    CLEAR     17   9  70 CALM      29.85R
HOULTON        CLEAR     17   4  56 NW3       29.80R
PRESQUE ISLE   CLEAR     18   0  45 CALM      29.81R
FRENCHVILLE    CLEAR     11  -3  53 NW12G23   29.76R WCI  -3
CARIBOU        CLEAR     15   0  51 NW9       29.79R
$$

NHZ002-005-008-009-011-012-014-011100-
NEW HAMPSHIRE

CITY           SKY/WX    TMP DP  RH WIND       PRES   REMARKS
PORTSMOUTH     CLEAR     25  10  51 W3        29.88R
ROCHESTER      CLEAR     26   6  42 NW6       29.88R
NASHUA         CLEAR     27  10  48 CALM      29.91R
MANCHESTER     PTCLDY    28   8  43 NW5       29.89R
CONCORD        CLEAR     27   9  46 NW8       29.89R
LACONIA        CLEAR     27   7  43 W3        29.86R
PLYMOUTH       FAIR      26  13  56 W9        29.89R
BERLIN         CLEAR      6   2  83 CALM      29.85R
WHITEFIELD     CLEAR      8   3  80 CALM      29.88R
JAFFREY        CLEAR     23   6  48 CALM      29.87R
KEENE          CLEAR     19  12  73 S3        29.91R
LEBANON        CLEAR     19  11  70 CALM      29.91R
MT WASHINGTON  PTCLDY     1 -11  55 NW48        N/A  WCI -29
$$

VTZ005-007-008-011100-
VERMONT

CITY           SKY/WX    TMP DP  RH WIND       PRES   REMARKS
ST JOHNSBURY     N/A     14   9  80 MISG      29.91R
MONTPELIER     CLEAR     15   4  61 CALM      29.92R
BURLINGTON     CLEAR     23  10  57 N5        29.96R
$$

MAZ007-012-024-CTZ003-RIZ002-NYZ038-NYZ072-011100-
SOUTHERN NEW ENGLAND AND NY

CITY           SKY/WX    TMP DP  RH WIND       PRES   REMARKS
BOSTON         CLEAR     30   9  41 N8        29.90R
WORCESTER      CLEAR     28   2  32 N13       29.85R WCI  17
NANTUCKET      CLOUDY    37  26  64 N23G30    29.80R
PROVIDENCE     MOCLDY    32   6  33 N13       29.89R
HARTFORD       PTCLDY    30  13  49 CALM      29.91R
ALBANY         PTCLDY    26  11  52 N5        29.96R
NEW YORK CITY  PTCLDY    34  23  64 NW10      29.94R
$$

ANZ081-ANZ082-ANZ150-NHZ014-MEZ023>029-011100-
COASTAL MARINE OBSERVATIONS

STATION/POSITION TIME  TEMP    WIND        PRES    WAVE
                       AIR SEA DIR/SP/G            HT/PER
                 (UTC) (F)     (DEG/KT/KT) (MB)    (FT/S)
MOUNT DESERT ROC 1000   30                 1010.1R
MATINICUS ROCK   1000   30     360/ 18/ 19 1010.8R
WELLS            0900   26 35  350/  2/  3 1010.7R
ISLE OF SHOALS   1000   31     350/ 11/ 13 1011.7R
JEFFREYS LEDGE   0951      40                N/A     5/ 5
CASHES LEDGE BUO 0950   33 38              1010.1R   5/ 5
$$

.............KEY..............
   WCI - WIND CHILL
   TC  - TEMPERATURE IN CELSIUS
   VSB - VISIBILITY IN MILES
   HX  - HEAT INDEX
   FAIR- INDICATES FEW OR NO CLOUDS BELOW 12,000 FT, WITH NO
         SIGNIFICANT WEATHER AND/OR OBSTRUCTIONS TO VISIBILITY.




USA.gov is the U.S. government's official web portal to all federal, state and local government web resources and services.